Location: Agendoh
(31.0664°N, 8.9343°W)
Time: 20:21:20
(UTC+00:00)

FengYun 1-2 T - Pass Details

Date: 06 December 2021
Orbit: 846 x 881 km, 98.7° (Epoch: 16 January)

Event Time Altitude Azimuth Distance (km) Brightness Sun altitude
Rises 06:36:34 0° 13° (NNE) 3,410 7.3 -9.4°
Reaches altitude 10° 06:38:57 10° 15° (NNE) 2,472 6.6 -9.0°
Maximum altitude 06:44:26 82° 102° (ESE) 857 4.4 -7.9°
Drops below altitude 10° 06:49:55 10° 191° (S) 2,465 6.8 -6.8°
Sets 06:52:16 0° 192° (SSW) 3,401 7.5 -6.3°
